< < Back
Terminal Aerodrome Forecast


Current Version              Previous Versions:   1  2  3  4  5  6  7  8  9  

Terminal Aerodrome Forecast

826
FTUS42 KGSP 010500
TAFHKY
TAF
KHKY 010535Z 0106/0206 00000KT P6SM BKN250
     FM010900 00000KT 5SM BR BKN250
     FM011300 25003KT P6SM SCT250
     FM011600 25006KT P6SM SCT060
     FM012000 24005KT P6SM BKN060
     FM020100 24003KT P6SM SCT060=

Latest METAR

825
SAUS70 KWBC 010800 RRW
MTRHKY
METAR KHKY 010753Z AUTO 00000KT 10SM CLR 22/21 A3011 RMK AO2 SLP172
T02220211


USA.gov is the U.S. government's official web portal to all federal, state and local government web resources and services.